[[{"header":{"parameterUnit":"m.s-1","parameterCategory":1,"la1":30.2991,"la2":30.254,"lo1":-89.0895,"lo2":-89.0444,"dy":0.0017,"dx":0.0017,"nx":28,"ny":28,"refTime":"2023-10-20T09:00:00:Z","depth":0,"parameterNumber":2,"parameterNumberName":"U-component_of_WINDS"},"data":[0,0,0,0,0,0,0,0,0,0,0,0,0,0,0,0,0,0,0,0,0,0,0,0,0,0,0,0,0,0,0,0,0,0,0,0,0,0,0,0,0,0,0,0,0,0,0,0,0,0,0,0,0,0,0,0,0,0,1.2185,1.2185,0,1.2207,1.2207,1.2208,1.2163,1.2161,1.216,1.2158,1.2184,1.2186,1.2188,0,0,0,0,0,0,0,0,0,0,0,0,0,1.2107,1.2109,1.2185,1.2185,1.2186,1.2207,1.2207,1.2208,1.2163,1.2161,1.2159,1.2158,1.2183,1.2186,1.2188,0,0,0,0,0,0,0,0,0,0,0,0,0,1.2136,1.2109,1.2185,1.2166,1.2164,1.2207,1.2207,1.2208,1.2163,1.2161,1.2159,1.2157,1.2183,1.2186,1.2189,1.2252,0,0,1.2198,1.22,0,0,0,0,0,0,0,0,1.2135,1.2139,1.2168,1.2167,1.2166,1.218,1.2189,1.2223,1.2164,1.2164,1.2158,1.2156,1.2185,1.2187,1.2197,1.2253,1.2254,1.2198,1.22,1.2202,1.2203,0,0,0,0,0,0,0,1.2133,1.2138,1.2194,1.2169,1.2167,1.2157,1.2159,1.2195,1.2187,1.2164,1.216,1.2163,1.2184,1.2194,1.2197,1.2255,1.2198,1.2201,1.2203,1.2204,1.2366,1.2368,0,0,0,0,0,0,1.2133,1.2137,1.2193,1.2194,1.2144,1.216,1.2162,1.2178,1.2186,1.2185,1.2165,1.2161,1.219,1.2193,1.2198,1.2273,1.2202,1.2205,1.2206,1.2363,1.2366,1.2369,0,0,0,0,0,0,1.2131,1.2138,1.2192,1.2165,1.2171,1.2164,1.2182,1.2179,1.2189,1.2187,1.2186,1.2177,1.2188,1.2193,1.2239,1.2273,1.2206,1.2209,1.236,1.2364,1.2367,1.2424,0,0,0,0,0,0,1.2129,1.2138,1.2161,1.2166,1.2172,1.2232,1.2184,1.2181,1.2194,1.2189,1.2198,1.2197,1.2187,1.2234,1.2242,1.2276,1.2211,1.2357,1.2362,1.2366,1.2419,1.2429,1.2438,0,0,0,0,0,1.2127,1.2177,1.2163,1.217,1.2201,1.2234,1.2238,1.2224,1.2197,1.2221,1.222,1.2197,1.2268,1.224,1.2248,1.2283,1.2355,1.2361,1.2366,1.2415,1.2427,1.2438,0,0,0,0,0,0,1.2178,1.2177,1.2161,1.2214,1.2225,1.2227,1.2256,1.2238,1.2257,1.2251,1.2234,1.2236,1.2286,1.2289,1.2257,1.2346,1.2307,1.2315,1.2342,1.2353,1.2363,1.2361,1.2214,0,0,0,0,0,1.2195,1.2221,1.2219,1.2266,1.2272,1.2264,1.2278,1.2266,1.2276,1.2281,1.2283,1.2295,1.2319,1.2336,1.2359,1.2419,1.2421,1.2448,1.2457,1.2465,1.2472,1.2505,1.2517,1.2387,1.2387,1.2387,0,0,1.2232,1.2234,1.2252,1.2277,1.2283,1.2312,1.2268,1.2299,1.2321,1.2286,1.2329,1.2331,1.2343,1.2396,1.242,1.2401,1.2508,1.2472,1.2478,1.2481,1.2511,1.2524,1.2535,1.239,1.239,1.2389,0,0,1.2312,1.2317,1.2357,1.2364,1.2374,1.2368,1.2378,1.2383,1.2382,1.2425,1.24,1.2425,1.2468,1.2478,1.2489,1.2574,1.2554,1.2582,1.2631,1.2663,1.2673,1.2683,1.2714,1.2725,1.2588,1.2589,1.2589,0,1.2357,1.2397,1.238,1.2413,1.2425,1.2394,1.2435,1.2443,1.2461,1.2471,1.2448,1.2502,1.2508,1.2564,1.2584,1.2594,1.2605,1.2581,1.2673,1.2682,1.269,1.272,1.2732,1.2592,1.2592,1.2591,1.2591,0,1.2452,1.2481,1.2512,1.2529,1.2544,1.2581,1.257,1.2588,1.2575,1.2572,1.2616,1.2622,1.2646,1.2658,1.2646,1.2712,1.27,1.2676,1.2637,1.2706,1.2734,1.2745,1.2597,1.2596,1.2595,1.2594,0,0,1.2566,1.2572,1.2584,1.2592,1.2601,1.2623,1.2659,1.2682,1.2698,1.2711,1.2742,1.2779,1.2757,1.2769,1.2758,1.2786,1.2854,1.2758,1.2758,1.2777,1.2929,1.2948,1.2961,1.284,1.2842,1.2844,1.2928,0,1.2647,1.2708,1.2693,1.2754,1.2781,1.2751,1.2783,1.2793,1.2791,1.2814,1.2812,1.2839,1.2807,1.2814,1.2841,1.284,1.2884,1.2834,1.287,1.2872,1.2869,1.2975,1.2995,1.3074,1.2939,1.294,1.2942,0,1.2749,1.2766,1.2829,1.2834,1.2845,1.2873,1.2893,1.2915,1.2926,1.2922,1.2936,1.2919,1.2956,1.2916,1.2968,1.2933,1.2947,1.2949,1.2952,1.2956,1.2912,1.2983,1.3099,1.3111,1.2958,1.2957,1.2956,0,1.2828,1.2866,1.2908,1.2916,1.2922,1.2943,1.2947,1.2955,1.297,1.2987,1.2997,1.3019,1.3031,1.3049,1.3039,1.3011,1.3093,1.3052,1.3092,1.3092,1.3112,1.3111,1.3233,1.3119,1.3119,1.3118,1.3118,0,1.292,1.296,1.2944,1.297,1.3015,1.2998,1.3043,1.3043,1.3051,1.3078,1.3054,1.308,1.3065,1.309,1.3083,1.3127,1.3133,1.3132,1.313,1.3135,1.3135,1.3144,1.3139,1.3122,1.3121,1.312,1.312,0,1.3015,1.3006,1.3051,1.3053,1.3055,1.3087,1.309,1.3115,1.3111,1.3146,1.3153,1.3147,1.3176,1.3167,1.3198,1.3193,1.325,1.324,1.3246,1.3244,1.3285,1.3282,1.3418,1.3436,1.331,1.3311,1.3312,0,1.3075,1.3105,1.3111,1.3127,1.3132,1.3158,1.3172,1.3157,1.3173,1.3188,1.3212,1.3238,1.3258,1.3306,1.3305,1.3329,1.332,1.3366,1.3324,1.3328,1.3322,1.3321,1.3325,1.3375,1.3377,1.3378,1.3379,0,1.3183,1.3177,1.3198,1.3218,1.3236,1.3251,1.3264,1.3279,1.3264,1.3284,1.3313,1.3328,1.336,1.3387,1.3408,1.3414,1.3395,1.3392,1.3403,1.3409,1.3412,1.3412,1.327,1.3389,1.3388,1.3387,1.3387,1.3387,1.3263,1.3289,1.3297,1.3322,1.333,1.3343,1.3367,1.3365,1.3388,1.3412,1.3402,1.3435,1.3445,1.3473,1.3481,1.3507,1.349,1.3505,1.3509,1.3514,1.352,1.3407,1.3511,1.3511,1.351,1.351,1.351,0,1.3371,1.3374,1.3397,1.3416,1.3436,1.3414,1.3428,1.3446,1.3476,1.3486,1.3507,1.354,1.3566,1.3567,1.3592,1.3613,1.3605,1.362,1.3619,1.3621,1.3533,1.3522,1.3626,1.3626,1.3626,1.3626,1.3626,1.3626,1.3429,1.3472,1.3467,1.3513,1.3517,1.3548,1.3558,1.357,1.3579,1.3617,1.3638,1.3638,1.3646,1.367,1.3694,1.3694,1.3705,1.3723,1.372,1.3638,1.3627,1.3616,1.3605,1.3725,1.3726,1.3806,1.3806,1.3807]},{"header":{"parameterUnit":"m.s-1","parameterCategory":1,"la1":30.2991,"la2":30.254,"lo1":-89.0895,"lo2":-89.0444,"dy":0.0017,"dx":0.0017,"nx":28,"ny":28,"refTime":"2023-10-20T09:00:00:Z","depth":0,"parameterNumber":3,"parameterNumberName":"V-component_of_WINDS"},"data":[0,0,0,0,0,0,0,0,0,0,0,0,0,0,0,0,0,0,0,0,0,0,0,0,0,0,0,0,0,0,0,0,0,0,0,0,0,0,0,0,0,0,0,0,0,0,0,0,0,0,0,0,0,0,0,0,0,0,1.8825,1.8824,0,1.8805,1.8805,1.8804,1.8753,1.8752,1.8751,1.875,1.8731,1.8731,1.8732,0,0,0,0,0,0,0,0,0,0,0,0,0,1.882,1.882,1.8825,1.8824,1.8824,1.8805,1.8805,1.8804,1.8754,1.8752,1.8751,1.875,1.8731,1.8731,1.8732,0,0,0,0,0,0,0,0,0,0,0,0,0,1.8813,1.882,1.8825,1.8796,1.8794,1.8805,1.8805,1.8804,1.8754,1.8752,1.8751,1.8749,1.8731,1.8731,1.8732,1.8769,0,0,1.8734,1.8735,0,0,0,0,0,0,0,0,1.8814,1.8813,1.8801,1.8798,1.8795,1.878,1.8796,1.8793,1.8754,1.8769,1.875,1.8748,1.8749,1.8748,1.8748,1.8768,1.8767,1.8734,1.8735,1.8735,1.8735,0,0,0,0,0,0,0,1.8814,1.8814,1.8817,1.8801,1.8797,1.8785,1.8782,1.8795,1.8768,1.8768,1.8764,1.8762,1.8747,1.8747,1.8747,1.8767,1.8734,1.8735,1.8735,1.8736,1.8818,1.882,0,0,0,0,0,0,1.8819,1.8815,1.8817,1.8816,1.8801,1.8787,1.8784,1.8786,1.8768,1.8763,1.8764,1.876,1.8747,1.8746,1.8746,1.8789,1.8735,1.8736,1.8736,1.8816,1.8819,1.882,0,0,0,0,0,0,1.8819,1.8819,1.8818,1.8814,1.8813,1.8788,1.8792,1.8787,1.8787,1.8765,1.876,1.8769,1.8745,1.8745,1.8764,1.8787,1.8736,1.8737,1.8814,1.8817,1.8819,1.8874,0,0,0,0,0,0,1.8819,1.882,1.8833,1.8815,1.8814,1.8836,1.8794,1.8788,1.8788,1.8783,1.8768,1.8764,1.8744,1.8763,1.8765,1.8787,1.8737,1.8812,1.8816,1.8819,1.887,1.8878,1.8885,0,0,0,0,0,1.8819,1.8849,1.8834,1.8835,1.883,1.8838,1.8837,1.8813,1.8791,1.8804,1.879,1.8765,1.8784,1.8765,1.8767,1.879,1.8811,1.8815,1.8818,1.8867,1.8877,1.8885,0,0,0,0,0,0,1.8871,1.8846,1.8829,1.8855,1.8849,1.8829,1.8845,1.8824,1.8824,1.8819,1.8789,1.8787,1.881,1.8802,1.8781,1.8825,1.8793,1.8798,1.883,1.8839,1.8847,1.8848,1.8738,0,0,0,0,0,1.8885,1.8893,1.8871,1.8896,1.8894,1.887,1.8873,1.8855,1.8847,1.8844,1.8832,1.8826,1.883,1.8834,1.8837,1.8869,1.8865,1.8886,1.8893,1.89,1.8904,1.892,1.8929,1.8833,1.8833,1.8833,0,0,1.8915,1.8903,1.891,1.8906,1.8899,1.8909,1.8869,1.888,1.8887,1.8846,1.8863,1.8854,1.8845,1.8871,1.8882,1.8865,1.893,1.8905,1.891,1.891,1.8925,1.8934,1.8943,1.8836,1.8835,1.8835,0,0,1.8974,1.8966,1.8986,1.898,1.897,1.8954,1.8959,1.8943,1.8935,1.8952,1.8922,1.893,1.8938,1.8934,1.8932,1.8991,1.8968,1.8993,1.9033,1.9049,1.9057,1.9063,1.9085,1.9093,1.8997,1.8997,1.8997,0,1.9013,1.9025,1.8999,1.9012,1.9012,1.8976,1.8996,1.8992,1.8984,1.8984,1.8966,1.8977,1.8968,1.8993,1.9007,1.9007,1.9012,1.8995,1.9058,1.9064,1.907,1.909,1.9098,1.9001,1.9,1.9,1.9,0,1.9073,1.9082,1.91,1.9093,1.9095,1.9111,1.9088,1.9093,1.9075,1.9062,1.908,1.9068,1.9069,1.9073,1.9056,1.9096,1.9086,1.9063,1.903,1.9083,1.9101,1.9108,1.9005,1.9004,1.9003,1.9002,0,0,1.9164,1.9143,1.915,1.9146,1.9133,1.914,1.9156,1.9156,1.9161,1.9157,1.917,1.9179,1.9158,1.9157,1.9138,1.9153,1.9201,1.9128,1.9128,1.9143,1.9244,1.9262,1.9271,1.9186,1.9187,1.9188,1.9245,0,1.922,1.9245,1.9222,1.9252,1.926,1.9227,1.924,1.9234,1.9222,1.9228,1.9215,1.9222,1.9194,1.9193,1.9206,1.9192,1.9221,1.9188,1.9198,1.9198,1.9201,1.9281,1.9299,1.9353,1.9252,1.9253,1.9254,0,1.9288,1.9288,1.9318,1.9304,1.9307,1.9319,1.9318,1.9324,1.9317,1.9307,1.9307,1.9285,1.9299,1.9268,1.9288,1.9266,1.9269,1.9263,1.9265,1.9265,1.923,1.9283,1.937,1.9378,1.9265,1.9264,1.9264,0,1.9352,1.9359,1.9378,1.9376,1.936,1.937,1.9364,1.9355,1.9357,1.9356,1.9357,1.9358,1.9359,1.9361,1.934,1.9319,1.9364,1.933,1.9357,1.9357,1.9367,1.9367,1.9456,1.9369,1.9369,1.9369,1.9369,0,1.9417,1.9437,1.9406,1.9418,1.944,1.9414,1.9437,1.9427,1.942,1.9429,1.9401,1.9411,1.9382,1.939,1.9374,1.9393,1.9394,1.9387,1.9382,1.939,1.9391,1.9391,1.9387,1.9371,1.937,1.937,1.937,0,1.9492,1.9472,1.9491,1.9474,1.947,1.9487,1.9473,1.9484,1.947,1.9483,1.9485,1.9464,1.9471,1.945,1.9454,1.9443,1.9472,1.9462,1.9475,1.9472,1.95,1.9498,1.9592,1.9604,1.9509,1.951,1.9511,0,1.9534,1.9549,1.9534,1.9539,1.9534,1.9542,1.9544,1.9519,1.9522,1.9516,1.9527,1.9532,1.9535,1.9548,1.9533,1.9536,1.9525,1.9559,1.9526,1.9533,1.9526,1.9526,1.9528,1.9565,1.9567,1.9567,1.9568,0,1.9612,1.9602,1.9606,1.9607,1.9611,1.961,1.9608,1.9613,1.9587,1.9592,1.9599,1.9601,1.9605,1.9611,1.9611,1.9604,1.9583,1.9579,1.9585,1.9593,1.96,1.9597,1.9494,1.9577,1.9576,1.9575,1.9575,1.9574,1.9672,1.9684,1.9676,1.9682,1.9677,1.9676,1.9686,1.9673,1.9679,1.968,1.9665,1.9676,1.9669,1.9666,1.9663,1.9671,1.9656,1.9665,1.9667,1.967,1.9675,1.9599,1.9671,1.9671,1.967,1.967,1.967,0,1.9749,1.9743,1.9748,1.9746,1.9751,1.9729,1.9726,1.9731,1.9741,1.9736,1.9739,1.9748,1.9753,1.9739,1.9743,1.9752,1.9742,1.9754,1.9753,1.9752,1.9688,1.9682,1.9762,1.9762,1.9762,1.9762,1.9762,1.9762,1.979,1.9809,1.9798,1.9815,1.9808,1.9818,1.9818,1.9817,1.9813,1.9824,1.9829,1.9819,1.9811,1.9814,1.9818,1.9814,1.9817,1.9832,1.9825,1.9765,1.9756,1.9748,1.9742,1.9833,1.9833,1.9888,1.9888,1.9889]}]]